Weather History for GMMZ - December, 2012

Change the Weather History Date:

Thursday, December 27, 2012

  Actual Average Record
Temperature  
Mean Temperature 49 °F -  
Max Temperature 61 °F 62 °F - ()
Min Temperature 37 °F 35 °F - ()
Degree Days  
Heating Degree Days 16    
Moisture  
Dew Point 26 °F    
Average Humidity 39    
Maximum Humidity 60    
Minimum Humidity 15    
Precipitation  
Precipitation 0.00 in 0.02 in - ()
Sea Level Pressure  
Sea Level Pressure 30.38 in    
Wind  
Wind Speed 2 mph ()    
Max Wind Speed 5 mph    
Max Gust Speed -    
Visibility 12.0 miles    
Events      
T = Trace of Precipitation, MM = Missing Value Source: Averaged Metar Reports

Daily Weather History Graph

Daily Weather History Graph

Search for Another Location

Airport or City:

Trip Planner

Search our weather history database for the weather conditions in past years. The results will help you decide how hot, cold, wet, or windy it might be!

Date:

Astronomy

Dec. 27, 2012 Rise Set
Actual Time 7:24 AM WET 5:33 PM WET
Civil Twilight 6:57 AM WET 6:00 PM WET
Nautical Twilight 6:27 AM WET 6:30 PM WET
Astronomical Twilight 5:57 AM WET 6:59 PM WET
Moon 5:03 PM WET (12/27) 6:26 AM WET (12/27)
Length of Visible Light 11h 02m
Length of Day
10h 09m
Waxing Gibbous, 99% of the Moon is Illuminated
Dec 27
Waxing Gibbous
Dec 28
Full
Jan 5
Last Quarter
Jan 11
New
Jan 18
First Quarter

Hourly Weather History & Observations

Time (WET) Temp. Windchill Dew Point Humidity Pressure Visibility Wind Dir Wind Speed Gust Speed Precip Events Conditions
12:00 AM 48 °F - 28 °F 34%  in 12 mi ENE 3.5 mph - -  
12:00 AM 48.2 °F - 28.4 °F 46% 30.33 in - Variable 3.5 mph - N/A   Clear
2:00 AM 46.4 °F - 28.4 °F 50% 30.33 in - Variable 1.2 mph - N/A   Clear
3:00 AM 40 °F - 26 °F 44%  in 12 mi WNW 4.6 mph - -  
3:00 AM 41.0 °F 38.0 °F 24.8 °F 53% 30.33 in - WNW 4.6 mph - N/A   Clear
5:00 AM 39.2 °F 37.0 °F 24.8 °F 56% 30.36 in - Variable 3.5 mph - N/A   Clear
6:00 AM 40 °F - 25 °F 43%  in 12 mi West 2.3 mph - -  
6:00 AM 39.2 °F - 24.8 °F 56% 30.36 in - Variable 2.3 mph - N/A   Clear
7:00 AM 37.4 °F - 23.0 °F 56% 30.39 in - Variable 2.3 mph - N/A   Clear
8:00 AM 37.4 °F - 24.8 °F 60% 30.39 in - Variable 1.2 mph - N/A   Clear
9:00 AM 39 °F - 24 °F 41%  in 12 mi WNW 1.2 mph - -  
9:00 AM 39.2 °F - 23.0 °F 52% 30.42 in - Variable 1.2 mph - N/A   Clear
10:00 AM 46.4 °F - 28.4 °F 50% 30.45 in - Calm Calm - N/A   Clear
12:00 PM 54 °F - 29 °F 27%  in 12 mi NNE 2.3 mph - -  
12:00 PM 53.6 °F - 30.2 °F 41% 30.42 in - Variable 2.3 mph - N/A   Clear
1:00 PM 57.2 °F - 30.2 °F 36% 30.39 in - Calm Calm - N/A   Clear
2:00 PM 59.0 °F - 30.2 °F 34% 30.36 in - Variable 2.3 mph - N/A   Clear
3:00 PM 60 °F - 27 °F 17%  in 12 mi East 1.2 mph - -  
3:00 PM 59.0 °F - 26.6 °F 29% 30.36 in - Variable 1.2 mph - N/A   Clear
4:00 PM 60.8 °F - 23.0 °F 23% 30.36 in - Variable 3.5 mph - N/A   Clear
5:00 PM 60.8 °F - 23.0 °F 23% 30.36 in - Variable 2.3 mph - N/A   Clear
6:00 PM 58 °F - 24 °F 15%  in 12 mi Calm Calm - -  
7:00 PM 57.2 °F - 23.0 °F 27% 30.36 in - Variable 1.2 mph - N/A   Clear
8:00 PM 48.2 °F - 21.2 °F 34% 30.36 in - Variable 2.3 mph - N/A   Clear
9:00 PM 51 °F - 24 °F 22%  in 12 mi West 4.6 mph - -  
9:00 PM 51.8 °F - 24.8 °F 35% 30.42 in - West 4.6 mph - N/A   Clear
10:00 PM 44.6 °F - 23.0 °F 43% 30.45 in - Calm Calm - N/A   Clear
11:00 PM 44.6 °F - 23.0 °F 43% 30.45 in - Calm Calm - N/A   Clear